Location: Allaines
(49.9632°N, 2.9458°E)
Time: 03:46:00
(UTC+00:00)

SPOT 5 - Pass Details

Date: 09 April 2020
Orbit: 624 x 814 km, 98.3° (Epoch: 04 June)

Event Time Altitude Azimuth Distance (km) Brightness Sun altitude
Exits shadow 20:31:35 28° 85° (E) 1,189 3.6 -17.9°
Maximum altitude 20:32:24 30° 65° (ENE) 1,133 3.6 -18.0°
Drops below altitude 10° 20:36:11 10° 4° (N) 2,013 5.6 -18.5°
Sets 20:38:35 0° 354° (N) 2,935 6.7 -18.8°
